Voltar ao catálogo

STARLINK-35136

AtivoComunicaçõesSSO
NORAD 65537·PAYLOAD·🇺🇸 United States

Lançado Sep 6, 2025 de Cape Canaveral Space Force Station

Loading…

Próximas Passagens (próximas 24 horas)

TLE

AtualizadoSource: CelesTrak SupGP

Época: Sep 14, 2026, 22:37 UTC

1 65537C 25200T   26257.94284722 -.00059578  00000+0 -18495-2 0  2576
2 65537  97.2854 324.4869 0001005  91.6104 316.6243 15.33468320    17

Acompanhe STARLINK-35136 em tempo real com AllMySat

Download on the App Store